{"data":{"norad_id":64262,"epoch":"2026-09-20T05:26:23.791200Z","epoch_age_seconds":161170,"freshness":"FRESH","line1":"1 64262U 25120G   26263.22666425  .00013366  00000+0  40614-3 0  9998","line2":"2 64262  53.1582 290.7486 0001147  90.5430 269.5704 15.34388900 73730","mean_motion":15.343889,"eccentricity":0.0001147,"inclination_deg":53.1582,"raan_deg":290.7486,"arg_perigee_deg":90.543,"mean_anomaly_deg":269.5704,"bstar":0.00040614,"rev_number":7373,"period_min":93.848436990127,"perigee_km":461.95158378551,"apogee_km":463.52088010491,"semimajor_km":6840.8732319452,"source":"CELESTRAK","updated_at":"2026-09-21T09:00:35.282592Z"}}